Weather History for Olathe, KS

Change the Weather History Date:

Wednesday, March 6, 2013

  Actual Average Record
Temperature  
Mean Temperature 30 °F 41 °F  
Max Temperature 36 °F 52 °F 75 °F (1974)
Min Temperature 23 °F 31 °F 3 °F (1960)
Degree Days  
Heating Degree Days 35 24  
Month to date heating degree days 200 148  
Since 1 July heating degree days 3853 4041  
Cooling Degree Days 0 0  
Month to date cooling degree days 0 0  
Year to date cooling degree days 1 0  
Moisture  
Dew Point 19 °F    
Average Humidity 66    
Maximum Humidity 75    
Minimum Humidity 56    
Precipitation  
Precipitation 0.00 in 0.08 in 0.89 in (1961)
Month to date precipitation 0.04 0.52  
Year to date precipitation 3.95 3.21  
Sea Level Pressure  
Sea Level Pressure 30.38 in    
Wind  
Wind Speed 6 mph (NE)    
Max Wind Speed 17 mph    
Max Gust Speed 22 mph    
Visibility 10 miles    
Events      
T = Trace of Precipitation, MM = Missing Value Source: NWS Daily Summary

Daily Weather History Graph

Daily Weather History Graph

Search for Another Location

Airport:

Trip Planner

Search our weather history database for the weather conditions in past years. The results will help you decide how hot, cold, wet, or windy it might be!

Date:

Astronomy

Mar. 06, 2013 Rise Set
Actual Time 6:43 AM CST 6:17 PM CST
Civil Twilight 6:16 AM CST 6:43 PM CST
Nautical Twilight 5:46 AM CST 7:14 PM CST
Astronomical Twilight 5:15 AM CST 7:45 PM CST
Moon 2:51 AM CST (3/6) 1:02 PM CST (3/6)
Length of Visible Light 12h 26m
Length of Day
11h 33m
Waning Crescent, 29% of the Moon is Illuminated
Mar 6
Waning Crescent
Mar 11
New
Mar 19
First Quarter
Mar 27
Full
Apr 2
Last Quarter

Hourly Weather History & Observations

Time (CST) Temp. Windchill Dew Point Humidity Pressure Visibility Wind Dir Wind Speed Gust Speed Precip Events Conditions
12:53 AM 26.1 °F 16.2 °F 17.1 °F 69% 30.39 in 10.0 mi NNW 10.4 mph - N/A   Overcast
1:09 AM 26.6 °F 16.8 °F 17.6 °F 69% 30.35 in 10.0 mi NNW 10.4 mph - N/A   Overcast
1:53 AM 26.1 °F 15.6 °F 17.1 °F 69% 30.39 in 10.0 mi North 11.5 mph - N/A   Overcast
2:53 AM 26.1 °F 17.6 °F 17.1 °F 69% 30.39 in 10.0 mi North 8.1 mph - N/A   Overcast
3:53 AM 25.0 °F 15.5 °F 18.0 °F 75% 30.39 in 10.0 mi North 9.2 mph - N/A   Overcast
4:53 AM 25.0 °F 14.2 °F 17.1 °F 72% 30.42 in 10.0 mi NNW 11.5 mph - N/A   Overcast
5:53 AM 25.0 °F 14.8 °F 18.0 °F 75% 30.43 in 10.0 mi North 10.4 mph - N/A   Overcast
6:17 AM 24.8 °F 17.9 °F 17.6 °F 74% 30.40 in 10.0 mi North 5.8 mph - N/A   Scattered Clouds
6:53 AM 24.1 °F 17.0 °F 17.1 °F 75% 30.44 in 10.0 mi North 5.8 mph - N/A   Clear
7:53 AM 25.0 °F 18.1 °F 18.0 °F 75% 30.44 in 10.0 mi North 5.8 mph - N/A   Clear
8:53 AM 27.0 °F 18.0 °F 17.1 °F 66% 30.45 in 10.0 mi NNE 9.2 mph - N/A   Clear
9:03 AM 26.6 °F 18.2 °F 17.6 °F 69% 30.41 in 10.0 mi NE 8.1 mph - N/A   Partly Cloudy
9:53 AM 28.9 °F 22.8 °F 18.0 °F 64% 30.45 in 10.0 mi North 5.8 mph - N/A   Partly Cloudy
10:53 AM 30.9 °F 26.2 °F 18.0 °F 59% 30.44 in 10.0 mi NNE 4.6 mph - N/A   Clear
11:53 AM 30.9 °F 27.5 °F 18.0 °F 59% 30.43 in 10.0 mi WNW 3.5 mph - N/A   Clear
12:53 PM 32.0 °F 28.7 °F 19.0 °F 59% 30.43 in 10.0 mi SE 3.5 mph - N/A   Clear
1:53 PM 33.1 °F 28.7 °F 19.0 °F 56% 30.40 in 10.0 mi Variable 4.6 mph - N/A   Clear
2:53 PM 33.1 °F 30.0 °F 19.9 °F 59% 30.38 in 10.0 mi SE 3.5 mph - N/A   Clear
3:53 PM 34.0 °F 29.8 °F 21.0 °F 59% 30.36 in 10.0 mi SE 4.6 mph - N/A   Clear
4:53 PM 34.0 °F 29.8 °F 21.0 °F 59% 30.35 in 10.0 mi South 4.6 mph - N/A   Clear
5:53 PM 32.0 °F 26.4 °F 21.0 °F 64% 30.33 in 10.0 mi South 5.8 mph - N/A   Clear
6:53 PM 30.9 °F - 19.9 °F 64% 30.33 in 10.0 mi Calm Calm - N/A   Clear
7:53 PM 30.0 °F 25.2 °F 19.9 °F 66% 30.32 in 10.0 mi SE 4.6 mph - N/A   Clear
8:53 PM 28.0 °F 21.7 °F 19.9 °F 72% 30.32 in 10.0 mi ESE 5.8 mph - N/A   Clear
9:53 PM 27.0 °F 18.7 °F 19.9 °F 75% 30.31 in 10.0 mi ESE 8.1 mph - N/A   Clear
10:53 PM 26.1 °F 19.4 °F 19.9 °F 78% 30.31 in 10.0 mi ESE 5.8 mph - N/A   Clear
11:53 PM 25.0 °F 18.1 °F 19.0 °F 78% 30.31 in 10.0 mi ESE 5.8 mph - N/A   Clear